« Back
NWS Peachtree City, Ga » Text Product » GA Regional Weather Roundup


Printer-friendly Version
Current Version              Previous Versions:   1  2  3  4  5  6  7  8  9  

Regional Weather Roundup

585
ASUS42 KFFC 060703
RWRGA
WEATHER ROUNDUP FOR GEORGIA
NATIONAL WEATHER SERVICE PEACHTREE CITY GA
300 AM EDT FRI MAY 06 2016

NOTE: "FAIR" INDICATES FEW OR NO CLOUDS BELOW 12,000 FEET WITH NO
SIGNIFICANT WEATHER AND/OR OBSTRUCTIONS TO VISIBILITY.

* = USE WITH CAUTION. THE STATIONS MARKED WITH AN ASTERISK MAY NOT
REPORT WEATHER SUCH AS PRECIPITATION, FOG, OR THUNDER AND ARE NOT
QUALITY CONTROLLED BY NWS.

THE REMARK "TC" DENOTES TEMPERATURE READING IN DEGREES CELSIUS.

GAZ001>058-060800-
NORTH GEORGIA

CITY           SKY/WX    TMP DP  RH WIND       PRES   REMARKS
ATLANTA        PTCLDY    48  39  71 NW9       29.86F
ATHENS         PTCLDY    46  41  82 NW6       29.82F
CHAMBLEE       CLEAR     47  40  76 NW7       29.86F
PEACHTREE CITY CLEAR     47  40  76 NW8       29.89S
ROME           CLEAR     46  40  79 NW9       29.90F
WEST ATLANTA   CLEAR     47  39  74 NW5       29.88F
GAINESVILLE    CLEAR     47  39  74 NW8       29.84F
CARTERSVILLE   CLEAR     44  41  89 CALM      29.91F


CITY           SKY/WX    TMP DP  RH WIND       PRES   REMARKS
DALTON*        CLEAR     45  43  93 N10       29.91F
MARIETTA       CLEAR     48  40  76 NW7       29.86F
CANTON*        CLEAR     45  36  70 NW8       29.86F
BLAIRSVILLE*     N/A    N/A N/A N/A MISG      29.89S
$$

GAZ059>098-102>109-060800-
CENTRAL GEORGIA

CITY           SKY/WX    TMP DP  RH WIND       PRES   REMARKS
AUGUSTA-BUSH   CLEAR     48  43  82 W6        29.80F
AUGUSTA-DANIEL CLEAR     51  41  68 NW6       29.80F
COLUMBUS       PTCLDY    52  38  58 N7        29.89F
MACON          CLEAR     46  39  76 NW7       29.85F
ROBINS AFB     CLEAR     45  40  81 N7        29.85F


CITY           SKY/WX    TMP DP  RH WIND       PRES   REMARKS
LAGRANGE*      PTCLDY    50  44  78 NW6       29.90F
SYLVANIA*      PTCLDY    51  47  87 NW5       29.81S
MILLEDGEVILLE* CLEAR     48  41  76 NW5       29.84F
$$

GAZ099>101-110>166-060800-
SOUTH GEORGIA

CITY           SKY/WX    TMP DP  RH WIND       PRES   REMARKS
SAVANNAH       CLEAR     52  44  74 W8        29.80F
VALDOSTA       CLEAR     50  45  83 CALM      29.86F
ALMA           CLEAR     51  44  77 NW6       29.84F
ST SIMONS      CLEAR     55  44  66 NW6       29.81F
FT STEWART     CLEAR     52  44  73 NW7       29.79F
ALBANY         CLEAR     54  39  57 N6        29.91F
HUNTER AFB     CLEAR     51  45  78 W8        29.77F
MOODY AFB      CLEAR     51  45  78 NW6       29.84F
BRUNSWICK      CLEAR     59  50  72 W5        29.83F


CITY           SKY/WX    TMP DP  RH WIND       PRES   REMARKS
BAINBRIDGE*    CLEAR     57  45  62 NE10      29.90S
MOULTRIE*      CLEAR     55  43  62 N7        29.89F
VIDALIA*       PTCLDY    50  43  76 NW6       29.82F
WAYCROSS*      CLEAR     51  45  80 NW7       29.84F
DOUGLAS*       CLEAR     54  43  66 NW5       29.87F
$$




USA.gov is the U.S. government's official web portal to all federal, state and local government web resources and services.